Location: IoMAS Observatory
(54.1780°N, 4.6265°W)
Time: 20:23:13
(UTC+01:00)

ISS - Pass Details

Date: 03 December 2021
Orbit: 413 x 422 km, 51.6° (Epoch: 23 January)

Event Time Altitude Azimuth Distance (km) Brightness Sun altitude
Rises 20:12:31 0° 276° (W) 2,383 1.4 -27.1°
Reaches altitude 10° 20:15:11 10° 255° (WSW) 1,512 0.0 -27.5°
Enters shadow 20:16:45 16° 228° (SW) 1,218 -0.9 -27.7°
